Location: Bjelajci
(45.0103°N, 16.1758°E)
Time: 09:18:59
(UTC+00:00)

Cosmos 1378 Rocket - Pass Details

Date: 14 July 2020
Orbit: 602 x 626 km, 82.5° (Epoch: 07 August)

Event Time Altitude Azimuth Distance (km) Brightness Sun altitude
Rises 02:17:06 0° 344° (NNW) 2,900 7.4 -9.8°
Reaches altitude 10° 02:19:25 10° 337° (NNW) 1,993 6.5 -9.5°
Maximum altitude 02:23:33 41° 268° (W) 909 4.1 -9.0°
Drops below altitude 10° 02:27:41 10° 198° (SSW) 1,989 5.6 -8.5°
Enters shadow 02:28:29 - 195° (SSW) 2,300 6.0 -8.4°
